User: anonymous   Login
Location: Caixon
(43.4106°N, 0.0273°E)
Time: 08:02:04
(UTC+00:00)
Language:

Cosmos 2181 Rocket - Orbit

View from above orbital plane
View from above orbital plane
View from above satellite
View from above satellite

Ground track
Ground track

The orbit data is extracted from the following two-line orbital elements,

1 21903U 92012B   22019.51329219  .00000138  00000-0  12788-3 0  9996
2 21903  82.9364  21.2194 0044213  97.2266  12.7252 13.74526358497726
Epoch (UTC): 19 January 2022 12:19:08
Eccentricity: 0.0044213
inclination: 82.9364°
perigee height: 951 km
apogee height: 1016 km
right ascension of ascending node: 21.2194°
argument of perigee: 97.2266°
revolutions per day: 13.74526358
mean anomaly at epoch: 12.7252°
orbit number at epoch: 49772

The dashed part of the orbit path shows where the satellite is in the earth's shadow,  

DLR